Content
SEND FEEDBACK

Daily
Averages
Monthly
Summary
United States of America

WILLIAMS, INDIANA


Home > North America > United States > Indiana
Elevation: 165 meters     Latitude: 38 48N     Longitude: 086 39W

WEATHER
 
SELECT A DAY
Number of Records: 199,170;   Date Range: 1/1/95 - 7/26/14
 
SHARE

PRINT THIS DATA

[ ← Previous Day ]
WEATHER ALMANAC - 13 FEBRUARY, 2013
[ Next Day → ]
[ °F ]   °C
Weather ElementAverageHighLow
Temperature1.6 °C6.7 °C (3:53 pm)-1.1 °C (4:53 am)
Dewpoint-3.7 °C-1.7 °C (9:53 pm)-5 °C (1:53 pm)
Humidity70.1 %85 % (2:53 am)43 % (3:53 pm)
Barometer1011.2 hPa1012.9 hPa (2:53 am)1009.5 hPa (2:53 pm)
Wind Speed9 km/h18.5 km/h (4:53 pm)
Wind Gust29.6 km/h (3:53 pm)
Weather ElementAverage
Visibility12.9 km
Wind DirectionSSE (157 °)

Weather ElementTotal
Precipitation---
Heating Degree Days15.6 (Base 18.3)
Averaged from 23 records on 13 February, 2013
WEATHER CONDITIONS BREAKOUT
WIND DIRECTION BREAKOUT
WEATHER BY HOUR - 13 FEBRUARY, 2013
[ °F ]   °C
Local TimeTemperatureDewpointHumidityBarometerVisibilityWind DirectionWind SpeedGust SpeedPrecipitationEventsConditions
1:53 AM0 °C-2.8 °C82 %1012.5 hPa9.7 kmNorth (10°)7.4 km/hHaze
2:53 AM-0.6 °C-2.8 °C85 %1012.9 hPa9.7 kmNorth (10°)5.6 km/hOvercast
3:53 AM-0.6 °C-2.8 °C85 %1011.5 hPa8 kmNorth (360°)7.4 km/hOvercast
4:53 AM-1.1 °C-3.9 °C82 %1011.2 hPa9.7 kmNorth (10°)11.1 km/hHaze
5:53 AM-1.1 °C-3.9 °C82 %1010.5 hPa9.7 kmNNE (30°)9.3 km/hHaze
6:53 AM-1.1 °C-3.9 °C82 %1010.2 hPa9.7 kmNorth (360°)11.1 km/hHaze
7:53 AM-1.1 °C-3.9 °C82 %1010.8 hPa9.7 kmNorth (10°)7.4 km/hHaze
8:53 AM-0.6 °C-4.4 °C76 %1011.5 hPa8 kmCalmHaze
9:53 AM-0.6 °C-4.4 °C76 %1011.5 hPa8 kmNNW (340°)5.6 km/hHaze
10:53 AM0 °C-3.9 °C75 %1011.5 hPa11.3 kmCalmOvercast
11:53 AM0.6 °C-4.4 °C70 %1011.2 hPa14.5 kmCalmOvercast
12:53 PM1.7 °C-4.4 °C64 %1010.5 hPa16.1 kmCalmMostly Cloudy
1:53 PM4.4 °C-5 °C51 %1009.8 hPa16.1 kmNW (310°)7.4 km/hClear
2:53 PM5.6 °C-5 °C47 %1009.5 hPa16.1 kmWSW (240°)11.1 km/hClear
3:53 PM6.7 °C-5 °C43 %1009.5 hPa16.1 kmWSW (250°)16.7 km/h29.6 km/hClear
4:53 PM6.1 °C-3.9 °C49 %1009.5 hPa16.1 kmWSW (240°)18.5 km/hClear
5:53 PM5.6 °C-3.9 °C51 %1010.2 hPa16.1 kmWSW (240°)18.5 km/h25.9 km/hClear
6:53 PM2.8 °C-4.4 °C59 %1010.8 hPa16.1 kmSW (220°)7.4 km/hClear
7:53 PM2.2 °C-3.9 °C64 %1011.2 hPa16.1 kmSouth (190°)11.1 km/hClear
8:53 PM1.7 °C-2.8 °C72 %1011.5 hPa16.1 kmSouth (190°)11.1 km/hClear
9:53 PM1.7 °C-1.7 °C78 %1011.9 hPa16.1 kmSouth (190°)13 km/hClear
10:53 PM2.2 °C-1.7 °C76 %1011.9 hPa16.1 kmSSW (200°)16.7 km/hClear
11:53 PM1.1 °C-1.7 °C82 %1011.9 hPa12.9 kmSSW (210°)11.1 km/hClear
Hourly data recorded from KBFR, located 0 kilometers away from Williams, Indiana







STORIES FROM OUR PARTNERS